Canby, MN

12:48 PM CDT on October 18, 2017 (GMT -0500)
Canby

Weather History for KCNB - April, 2014

Change the Weather History Date:

Wednesday, April 16, 2014

  Actual Average (KMML) Record (KMML)
Temperature  
Mean Temperature 31 °F -  
Max Temperature 33 °F 58 °F 84 °F (2002)
Min Temperature 28 °F 37 °F 20 °F (1953)
Degree Days  
Heating Degree Days 34    
Moisture  
Dew Point 26 °F    
Average Humidity 82    
Maximum Humidity 99    
Minimum Humidity 62    
Precipitation  
Precipitation 0.11 in - - ()
Sea Level Pressure  
Sea Level Pressure 29.89 in    
Wind  
Wind Speed 16 mph (NE)    
Max Wind Speed 22 mph    
Max Gust Speed 30 mph    
Visibility 6 miles    
Events Snow    
Averages and records for this station are not official NWS values.
T = Trace of Precipitation, MM = Missing Value Source: NWS Daily Summary

Daily Weather History Graph

Daily Weather History Graph

Search for Another Location

Airport or City:

Trip Planner

Search our weather history database for the weather conditions in past years. The results will help you decide how hot, cold, wet, or windy it might be!

Date:

Astronomy

Apr. 16, 2014 Rise Set
Actual Time 6:38 AM CDT 8:11 PM CDT
Civil Twilight 6:08 AM CDT 8:42 PM CDT
Nautical Twilight 5:31 AM CDT 9:19 PM CDT
Astronomical Twilight 4:51 AM CDT 9:59 PM CDT
Moon 10:00 PM CDT (4/16) 7:24 AM CDT (4/16)
Length of Visible Light 14h 33m
Length of Day
13h 32m
Full, 98% of the Moon is Illuminated
Apr 16
Full
Apr 22
Last Quarter
Apr 29
New
May 6
First Quarter
May 14
Full

Hourly Weather History & Observations

Time (CDT) Temp. Windchill Dew Point Humidity Pressure Visibility Wind Dir Wind Speed Gust Speed Precip Events Conditions
12:14 AM 33.8 °F 23.5 °F 22.1 °F 62% 29.85 in 10.0 mi ESE 16.1 mph 23.0 mph N/A   Overcast
12:35 AM 33.8 °F 23.5 °F 22.3 °F 63% 29.85 in 10.0 mi ESE 16.1 mph 23.0 mph N/A   Overcast
12:54 AM 33.8 °F 22.2 °F 22.3 °F 63% 29.83 in 10.0 mi ESE 20.7 mph 25.3 mph N/A   Scattered Clouds
1:14 AM 33.4 °F 23.1 °F 22.6 °F 65% 29.84 in 10.0 mi ESE 16.1 mph - N/A   Clear
1:34 AM 33.4 °F 22.7 °F 22.8 °F 65% 29.84 in 10.0 mi ESE 17.3 mph 25.3 mph N/A   Clear
1:54 AM 33.4 °F 22.3 °F 22.5 °F 64% 29.84 in 10.0 mi ESE 18.4 mph 24.2 mph N/A   Clear
2:15 AM 32.9 °F 21.6 °F 22.6 °F 66% 29.83 in 10.0 mi ESE 18.4 mph 24.2 mph N/A   Clear
2:34 AM 32.9 °F 22.4 °F 22.8 °F 66% 29.82 in 10.0 mi ESE 16.1 mph 24.2 mph N/A   Clear
2:54 AM 32.7 °F 21.1 °F 22.8 °F 67% 29.80 in 10.0 mi ESE 19.6 mph 27.6 mph N/A   Clear
3:15 AM 32.5 °F 21.2 °F 22.8 °F 67% 29.80 in 10.0 mi ESE 18.4 mph 25.3 mph N/A   Clear
3:34 AM 32.7 °F 22.1 °F 22.8 °F 67% 29.80 in 10.0 mi ESE 16.1 mph 26.5 mph N/A   Scattered Clouds
3:54 AM 32.9 °F 21.6 °F 22.8 °F 66% 29.80 in 10.0 mi ESE 18.4 mph 29.9 mph N/A   Mostly Cloudy
4:14 AM 32.9 °F 21.3 °F 22.8 °F 66% 29.79 in 10.0 mi ESE 19.6 mph 28.8 mph N/A   Mostly Cloudy
4:34 AM 32.5 °F 20.8 °F 22.8 °F 67% 29.79 in 10.0 mi East 19.6 mph 24.2 mph N/A   Mostly Cloudy
4:55 AM 32.5 °F 20.5 °F 22.8 °F 67% 29.78 in 10.0 mi East 20.7 mph 26.5 mph N/A   Overcast
5:14 AM 32.9 °F 20.7 °F 22.8 °F 66% 29.78 in 10.0 mi East 21.9 mph 25.3 mph N/A   Mostly Cloudy
5:34 AM 32.9 °F 21.6 °F 22.8 °F 66% 29.77 in 10.0 mi East 18.4 mph 27.6 mph N/A   Mostly Cloudy
5:54 AM 32.9 °F 21.6 °F 23.0 °F 67% 29.77 in 10.0 mi East 18.4 mph 27.6 mph N/A   Overcast
6:14 AM 32.9 °F 22.0 °F 23.0 °F 67% 29.77 in 10.0 mi East 17.3 mph 23.0 mph N/A   Overcast
6:35 AM 32.9 °F 23.2 °F 23.4 °F 68% 29.77 in 10.0 mi East 13.8 mph 19.6 mph N/A   Mostly Cloudy
6:55 AM 32.9 °F 23.2 °F 23.5 °F 68% 29.78 in 10.0 mi East 13.8 mph - N/A   Mostly Cloudy
7:14 AM 32.9 °F 23.2 °F 23.9 °F 69% 29.78 in 10.0 mi East 13.8 mph - N/A   Overcast
7:34 AM 33.1 °F 23.0 °F 23.9 °F 69% 29.78 in 10.0 mi East 15.0 mph 19.6 mph N/A   Overcast
7:54 AM 33.3 °F 23.2 °F 23.9 °F 69% 29.79 in 10.0 mi East 15.0 mph 20.7 mph N/A   Overcast
8:14 AM 33.4 °F 23.5 °F 24.6 °F 70% 29.79 in 7.0 mi East 15.0 mph - N/A Snow Light Snow
8:34 AM 33.8 °F 23.2 °F 25.3 °F 71% 29.78 in 10.0 mi East 17.3 mph 23.0 mph N/A   Overcast
8:54 AM 33.8 °F 23.5 °F 25.9 °F 73% 29.78 in 4.0 mi East 16.1 mph 21.9 mph N/A Snow Light Snow
9:14 AM 32.0 °F 20.8 °F 28.9 °F 88% 29.79 in 1.0 mi East 17.3 mph 23.0 mph N/A Snow Light Snow
9:34 AM 31.6 °F 22.1 °F 30.0 °F 94% 29.78 in 0.8 mi East 12.7 mph - N/A Snow Snow
9:54 AM 31.6 °F 23.1 °F 30.7 °F 96% 29.78 in 0.5 mi East 10.4 mph 16.1 mph 0.01 in Snow Snow
10:15 AM 31.8 °F 23.3 °F 31.1 °F 97% 29.79 in 0.8 mi East 10.4 mph - N/A Snow Light Snow
10:34 AM 31.8 °F 22.8 °F 31.1 °F 97% 29.80 in 0.8 mi East 11.5 mph - 0.01 in Snow Light Snow
10:54 AM 32.0 °F 22.5 °F 31.1 °F 96% 29.78 in 0.5 mi ENE 12.7 mph - 0.03 in Snow Snow
11:15 AM 31.8 °F 23.9 °F 31.1 °F 97% 29.80 in 1.2 mi NE 9.2 mph - N/A Snow Light Snow
11:34 AM 31.8 °F 26.2 °F 31.1 °F 97% 29.82 in 0.8 mi North 5.8 mph - 0.02 in Snow Light Snow
11:54 AM 31.8 °F 24.6 °F 31.3 °F 98% 29.83 in 0.5 mi North 8.1 mph - 0.04 in Snow Snow
12:14 PM 31.8 °F 23.3 °F 31.5 °F 99% 29.83 in 0.2 mi NNE 10.4 mph - 0.02 in Snow Snow
12:34 PM 32.0 °F 22.1 °F 31.5 °F 98% 29.83 in 0.2 mi NNE 13.8 mph - 0.03 in Snow Snow
12:55 PM 32.0 °F 23.6 °F 31.1 °F 96% 29.84 in 0.2 mi North 10.4 mph - 0.03 in Snow Snow
1:15 PM 31.1 °F 21.9 °F 30.0 °F 96% 29.84 in 0.5 mi NNE 11.5 mph 18.4 mph N/A Snow Snow
1:34 PM 31.1 °F 20.5 °F 29.8 °F 95% 29.85 in 0.5 mi NNE 15.0 mph - N/A Snow Snow
1:54 PM 31.1 °F 20.5 °F 29.7 °F 94% 29.85 in 0.8 mi NNE 15.0 mph 20.7 mph N/A Snow Light Snow
2:14 PM 30.7 °F 20.9 °F 29.3 °F 94% 29.86 in 1.5 mi NNE 12.7 mph 21.9 mph N/A Snow Light Snow
2:34 PM 30.4 °F 18.7 °F 29.1 °F 95% 29.87 in 1.0 mi NNE 17.3 mph 21.9 mph N/A Snow Light Snow
2:55 PM 30.2 °F 18.9 °F 28.9 °F 95% 29.88 in 0.8 mi NNE 16.1 mph - N/A Snow Light Snow
3:14 PM 29.8 °F 18.4 °F 28.8 °F 96% 29.89 in 0.2 mi NNE 16.1 mph 20.7 mph N/A Snow Snow
3:34 PM 29.3 °F 18.2 °F 28.6 °F 97% 29.90 in 0.2 mi NNE 15.0 mph 20.7 mph N/A Snow Snow
3:55 PM 29.8 °F 19.8 °F 28.9 °F 96% 29.92 in 0.2 mi NNE 12.7 mph - N/A Snow Snow
4:14 PM 30.2 °F 20.2 °F 28.8 °F 94% 29.93 in 0.5 mi NNE 12.7 mph - N/A Snow Snow
4:34 PM 30.9 °F 19.8 °F 28.8 °F 92% 29.94 in 0.5 mi North 16.1 mph 21.9 mph N/A Snow Light Snow
4:55 PM 30.7 °F 19.6 °F 28.4 °F 91% 29.95 in 0.8 mi North 16.1 mph 24.2 mph N/A Snow Light Snow
5:14 PM 30.4 °F 19.5 °F 28.2 °F 92% 29.95 in 2.0 mi North 15.0 mph 20.7 mph N/A Snow Light Snow
5:34 PM 30.2 °F 19.3 °F 28.4 °F 93% 29.97 in 4.0 mi North 15.0 mph 23.0 mph N/A Snow Light Snow
5:54 PM 30.2 °F 19.3 °F 28.4 °F 93% 29.99 in 4.0 mi North 15.0 mph 21.9 mph N/A Snow Light Snow
6:14 PM 30.6 °F 19.4 °F 28.4 °F 92% 30.00 in 5.0 mi North 16.1 mph 23.0 mph N/A   Overcast
6:34 PM 30.6 °F 20.2 °F 28.4 °F 92% 30.02 in 7.0 mi North 13.8 mph 21.9 mph N/A   Overcast
6:54 PM 30.6 °F 19.4 °F 28.0 °F 90% 30.02 in 10.0 mi North 16.1 mph 21.9 mph N/A   Overcast
7:15 PM 30.6 °F 19.4 °F 27.5 °F 88% 30.04 in 7.0 mi North 16.1 mph 23.0 mph N/A   Overcast
7:34 PM 30.7 °F 20.0 °F 27.3 °F 87% 30.04 in 10.0 mi North 15.0 mph 24.2 mph N/A   Overcast
7:54 PM 30.6 °F 19.0 °F 27.5 °F 88% 30.05 in 10.0 mi North 17.3 mph 20.7 mph N/A   Overcast
8:14 PM 30.2 °F 18.9 °F 27.0 °F 88% 30.06 in 10.0 mi North 16.1 mph 23.0 mph N/A   Overcast
8:34 PM 30.2 °F 18.9 °F 26.6 °F 86% 30.07 in 10.0 mi North 16.1 mph 24.2 mph N/A   Overcast
8:54 PM 30.2 °F 18.1 °F 26.4 °F 86% 30.09 in 10.0 mi North 18.4 mph 21.9 mph N/A   Overcast
9:14 PM 30.0 °F 18.3 °F 26.4 °F 86% 30.10 in 10.0 mi North 17.3 mph 20.7 mph N/A   Overcast
9:34 PM 30.0 °F 18.3 °F 26.1 °F 85% 30.11 in 10.0 mi North 17.3 mph 23.0 mph N/A   Overcast
9:55 PM 29.7 °F 17.8 °F 25.5 °F 85% 30.12 in 10.0 mi North 17.3 mph 23.0 mph N/A   Overcast
10:14 PM 29.7 °F 17.8 °F 25.3 °F 84% 30.13 in 10.0 mi North 17.3 mph 23.0 mph N/A   Overcast
10:34 PM 29.7 °F 18.2 °F 24.8 °F 82% 30.14 in 10.0 mi North 16.1 mph 20.7 mph N/A   Overcast
10:55 PM 29.7 °F 18.6 °F 25.2 °F 83% 30.14 in 10.0 mi North 15.0 mph - N/A   Overcast
11:14 PM 29.3 °F 18.2 °F 25.0 °F 84% 30.14 in 10.0 mi North 15.0 mph - N/A   Overcast
11:34 PM 29.1 °F 18.4 °F 24.6 °F 83% 30.15 in 10.0 mi North 13.8 mph 18.4 mph N/A   Overcast
11:54 PM 28.9 °F 17.3 °F 24.3 °F 83% 30.15 in 10.0 mi North 16.1 mph 20.7 mph N/A   Overcast